Weather History for Findlay, OH

Change the Weather History Date:

Wednesday, May 23, 2012

  Actual Average Record
Temperature  
Mean Temperature 66 °F -  
Max Temperature 81 °F 71 °F 91 °F (2007)
Min Temperature 52 °F 52 °F 33 °F (1963)
Cooling Degree Days 1    
Growing Degree Days 16 (Base 50)    
Moisture  
Dew Point 52 °F    
Average Humidity 59    
Maximum Humidity 89    
Minimum Humidity 39    
Precipitation  
Precipitation 0.00 in - - ()
Sea Level Pressure  
Sea Level Pressure 29.89 in    
Wind  
Wind Speed 3 mph (ESE)    
Max Wind Speed 8 mph    
Max Gust Speed -    
Visibility 9 miles    
Events      
Averages and records for this station are not official NWS values.
T = Trace of Precipitation, MM = Missing Value Source: NWS Daily Summary

Daily Weather History Graph

Daily Weather History Graph

Search for Another Location

Airport:

Trip Planner

Search our weather history database for the weather conditions in past years. The results will help you decide how hot, cold, wet, or windy it might be!

Date:

Astronomy

May. 23, 2012 Rise Set
Actual Time 6:09 AM EDT 8:53 PM EDT
Civil Twilight 5:37 AM EDT 9:25 PM EDT
Nautical Twilight 4:57 AM EDT 10:06 PM EDT
Astronomical Twilight 4:11 AM EDT 10:52 PM EDT
Moon 8:11 AM EDT (5/23) 11:14 PM EDT (5/23)
Length of Visible Light 15h 48m
Length of Day
14h 44m
Waxing Crescent, 6% of the Moon is Illuminated
May 23
Waxing Crescent
May 28
First Quarter
Jun 4
Full
Jun 11
Last Quarter
Jun 19
New

Hourly Weather History & Observations

Time (EDT) Temp. Heat Index Dew Point Humidity Pressure Visibility Wind Dir Wind Speed Gust Speed Precip Events Conditions
12:53 AM 59.0 °F - 51.1 °F 75% 29.91 in 10.0 mi East 3.5 mph - N/A   Clear
1:53 AM 57.0 °F - 50.0 °F 77% 29.91 in 10.0 mi Calm Calm - N/A   Clear
2:53 AM 53.1 °F - 50.0 °F 89% 29.91 in 9.0 mi Calm Calm - N/A   Clear
4:53 AM 53.1 °F - 50.0 °F 89% 29.89 in 6.0 mi Calm Calm - N/A   Clear
5:53 AM 52.0 °F - 48.9 °F 89% 29.90 in 6.0 mi Calm Calm - N/A   Clear
6:53 AM 55.0 °F - 52.0 °F 89% 29.92 in 6.0 mi Calm Calm - N/A   Clear
7:53 AM 59.0 °F - 54.0 °F 83% 29.92 in 6.0 mi Calm Calm - N/A   Haze
8:53 AM 64.0 °F - 53.1 °F 67% 29.94 in 10.0 mi Calm Calm - N/A   Clear
9:53 AM 68.0 °F - 53.1 °F 59% 29.94 in 10.0 mi East 3.5 mph - N/A   Clear
10:53 AM 71.1 °F - 52.0 °F 51% 29.93 in 10.0 mi Calm Calm - N/A   Clear
11:53 AM 73.9 °F - 52.0 °F 46% 29.93 in 10.0 mi Variable 4.6 mph - N/A   Clear
12:53 PM 75.0 °F - 52.0 °F 44% 29.93 in 10.0 mi East 5.8 mph - N/A   Clear
1:53 PM 78.1 °F - 52.0 °F 40% 29.90 in 10.0 mi ESE 8.1 mph - N/A   Clear
2:53 PM 79.0 °F - 53.1 °F 40% 29.88 in 10.0 mi Variable 3.5 mph - N/A   Clear
3:53 PM 80.1 °F 79.9 °F 53.1 °F 39% 29.87 in 10.0 mi Calm Calm - N/A   Clear
4:53 PM 80.1 °F 79.9 °F 53.1 °F 39% 29.84 in 10.0 mi Variable 6.9 mph - N/A   Partly Cloudy
5:53 PM 80.1 °F 79.9 °F 53.1 °F 39% 29.83 in 10.0 mi Calm Calm - N/A   Clear
6:53 PM 80.1 °F 79.9 °F 53.1 °F 39% 29.83 in 10.0 mi ESE 6.9 mph - N/A   Mostly Cloudy
7:53 PM 78.1 °F - 53.1 °F 42% 29.83 in 10.0 mi SE 6.9 mph - N/A   Clear
8:53 PM 75.0 °F - 53.1 °F 46% 29.83 in 10.0 mi East 8.1 mph - N/A   Clear
9:53 PM 71.1 °F - 54.0 °F 55% 29.85 in 10.0 mi East 5.8 mph - N/A   Clear
10:53 PM 68.0 °F - 54.0 °F 61% 29.86 in 10.0 mi East 6.9 mph - N/A   Clear
11:53 PM 66.0 °F - 54.0 °F 65% 29.86 in 10.0 mi East 4.6 mph - N/A   Clear